Weather History for Seattle, WA

Change the Weather History Date:

Saturday, November 9, 2013

  Actual Average Record
Temperature  
Mean Temperature 47 °F 47 °F  
Max Temperature 52 °F 52 °F 64 °F (1997)
Min Temperature 41 °F 41 °F 27 °F (1948)
Degree Days  
Heating Degree Days 18 18  
Month to date heating degree days 130 155  
Since 1 July heating degree days 646 752  
Cooling Degree Days 0 0  
Month to date cooling degree days 0 0  
Year to date cooling degree days 385 189  
Moisture  
Dew Point 42 °F    
Average Humidity 79    
Maximum Humidity 86    
Minimum Humidity 71    
Precipitation  
Precipitation 0.07 in 0.21 in 2.95 in (1990)
Month to date precipitation 2.07 1.82  
Year to date precipitation 29.18 27.39  
Snow  
Snow 0.00 in - - ()
Month to date snowfall 0.0  
Since 1 July snowfall 0.0  
Snow Depth 0.00 in    
Sea Level Pressure  
Sea Level Pressure 30.13 in    
Wind  
Wind Speed 3 mph (NNE)    
Max Wind Speed 9 mph    
Max Gust Speed 12 mph    
Visibility 7 miles    
Events Fog , Rain    
T = Trace of Precipitation, MM = Missing Value Source: NWS Daily Summary

Daily Weather History Graph

Daily Weather History Graph

Search for Another Location

Airport:

Trip Planner

Search our weather history database for the weather conditions in past years. The results will help you decide how hot, cold, wet, or windy it might be!

Date:

Astronomy

Nov. 09, 2013 Rise Set
Actual Time 7:05 AM PST 4:40 PM PST
Civil Twilight 6:32 AM PST 5:13 PM PST
Nautical Twilight 5:55 AM PST 5:49 PM PST
Astronomical Twilight 5:19 AM PST 6:25 PM PST
Moon 12:41 PM PST (11/9) 11:23 PM PST (11/9)
Length of Visible Light 10h 40m
Length of Day
9h 34m
Waxing Crescent, 45% of the Moon is Illuminated
Nov 9
Waxing Crescent
Nov 9
First Quarter
Nov 17
Full
Nov 25
Last Quarter
Dec 2
New

Hourly Weather History & Observations

Time (PST) Temp. Windchill Dew Point Humidity Pressure Visibility Wind Dir Wind Speed Gust Speed Precip Events Conditions
12:53 AM 46.9 °F - 39.0 °F 74% 30.17 in 10.0 mi ESE 4.6 mph - N/A   Mostly Cloudy
1:53 AM 46.9 °F - 39.0 °F 74% 30.16 in 10.0 mi East 4.6 mph - N/A   Mostly Cloudy
2:53 AM 44.1 °F - 37.0 °F 76% 30.16 in 10.0 mi Calm Calm - N/A   Scattered Clouds
3:53 AM 45.0 °F 42.6 °F 39.0 °F 80% 30.16 in 10.0 mi SE 4.6 mph - N/A   Partly Cloudy
4:53 AM 43.0 °F - 37.0 °F 80% 30.15 in 10.0 mi Calm Calm - N/A   Partly Cloudy
5:53 AM 43.0 °F 41.3 °F 37.0 °F 80% 30.14 in 10.0 mi SE 3.5 mph - N/A   Mostly Cloudy
6:53 AM 42.1 °F 40.2 °F 36.0 °F 79% 30.14 in 10.0 mi North 3.5 mph - N/A   Mostly Cloudy
7:29 AM 44.6 °F - 37.4 °F 76% 30.12 in 10.0 mi Calm Calm - N/A   Mostly Cloudy
7:47 AM 44.6 °F 42.2 °F 39.2 °F 81% 30.12 in 0.8 mi NE 4.6 mph - N/A Fog Patches of Fog
7:53 AM 45.0 °F 42.6 °F 39.0 °F 80% 30.14 in 0.8 mi NNE 4.6 mph - N/A Fog Patches of Fog
8:08 AM 44.6 °F 42.2 °F 41.0 °F 87% 30.10 in 0.5 mi ENE 4.6 mph - N/A Fog Fog
8:15 AM 44.6 °F 41.4 °F 41.0 °F 87% 30.10 in 0.5 mi NE 5.8 mph - N/A Fog Fog
8:53 AM 46.0 °F 44.8 °F 41.0 °F 83% 30.13 in 0.5 mi North 3.5 mph - N/A Fog Fog
8:59 AM 46.4 °F - 41.0 °F 81% 30.10 in 0.5 mi Calm Calm - N/A Fog Fog
9:10 AM 46.4 °F - 42.8 °F 87% 30.11 in 0.5 mi Calm Calm - N/A Fog Fog
9:33 AM 46.4 °F 43.5 °F 42.8 °F 87% 30.11 in 0.5 mi NNW 5.8 mph - N/A Fog Fog
9:51 AM 46.4 °F 44.3 °F 42.8 °F 87% 30.11 in 4.0 mi NNW 4.6 mph - N/A   Overcast
9:53 AM 46.0 °F 43.9 °F 42.1 °F 86% 30.13 in 4.0 mi NNW 4.6 mph - N/A   Overcast
9:56 AM 46.4 °F 42.4 °F 42.8 °F 87% 30.11 in 0.8 mi North 8.1 mph - N/A   Overcast
10:07 AM 46.4 °F 43.5 °F 42.8 °F 87% 30.11 in 7.0 mi NNE 5.8 mph - N/A   Overcast
10:22 AM 46.4 °F 45.2 °F 42.8 °F 87% 30.12 in 8.0 mi North 3.5 mph - N/A   Overcast
10:53 AM 48.0 °F - 42.1 °F 80% 30.14 in 9.0 mi Calm Calm - N/A   Overcast
11:18 AM 48.2 °F - 42.8 °F 82% 30.11 in 10.0 mi Calm Calm - N/A   Overcast
11:53 AM 50.0 °F - 42.1 °F 74% 30.13 in 10.0 mi Calm Calm - N/A   Mostly Cloudy
11:58 AM 51.8 °F - 42.8 °F 71% 30.10 in 10.0 mi Calm Calm - N/A   Overcast
12:53 PM 51.1 °F - 43.0 °F 74% 30.11 in 10.0 mi Calm Calm - N/A   Mostly Cloudy
1:53 PM 50.0 °F - 42.1 °F 74% 30.11 in 10.0 mi West 4.6 mph - N/A   Overcast
2:53 PM 50.0 °F - 42.1 °F 74% 30.12 in 10.0 mi Calm Calm - 0.00 in Rain Light Rain
3:53 PM 50.0 °F - 43.0 °F 77% 30.12 in 10.0 mi NW 3.5 mph - 0.00 in Rain Light Rain
4:53 PM 48.9 °F - 44.1 °F 83% 30.14 in 7.0 mi Calm Calm - 0.01 in Rain Light Rain
5:53 PM 48.9 °F - 43.0 °F 80% 30.14 in 10.0 mi NNE 6.9 mph - 0.02 in Rain Light Rain
6:53 PM 48.9 °F - 44.1 °F 83% 30.13 in 10.0 mi NE 8.1 mph - 0.01 in Rain Light Rain
7:53 PM 48.9 °F - 44.1 °F 83% 30.13 in 10.0 mi NNE 6.9 mph - 0.01 in Rain Light Rain
8:34 PM 48.2 °F - 44.6 °F 87% 30.10 in 8.0 mi North 6.9 mph - 0.00 in Rain Light Rain
8:45 PM 48.2 °F - 44.6 °F 87% 30.10 in 9.0 mi North 4.6 mph - 0.00 in Rain Light Rain
8:53 PM 48.9 °F - 44.1 °F 83% 30.13 in 3.0 mi North 4.6 mph - 0.00 in Rain Light Rain
9:53 PM 48.9 °F - 44.1 °F 83% 30.14 in 4.0 mi Calm Calm - 0.01 in Rain Light Rain
10:53 PM 48.0 °F - 44.1 °F 86% 30.13 in 5.0 mi North 6.9 mph - 0.01 in Rain Light Rain
11:53 PM 48.0 °F - 43.0 °F 83% 30.13 in 10.0 mi North 3.5 mph - 0.00 in Rain Light Rain